Flag for United Kingdom Weather past 2 weeks in Swindon, England, United Kingdom

Now
52 °F

Partly sunny.


Feels Like: 47 °F
Forecast: N/A
Wind: 13 mph from Southwest

Location: Brize Norton

Current Time: Feb 28, 2015 at 4:50:09 PM

Latest Report: Feb 28, 2015 at 3:50 PM


Visibility: N/A

Pressure: 29.59 "Hg

Humidity: 72%

Dew point: 43 °F

Location of SwindonLocation

Historic Weather in Swindon — Graph

°F

Swindon temperature yesterday

Maximum temperature yesterday: 48 °F (at 2:50 PM)
Minimum temperature yesterday: 30 °F (at 4:50 AM)
Average temperature yesterday: 39 °F

Past Weeks' High & Low Weather Summary

 TemperatureHumidityPressure
High54 °F (Feb 25, 1:50 PM)100% (Feb 14, 12:50 AM)30.74 "Hg (Feb 14, 12:50 AM)
Low28 °F (Feb 22, 5:50 AM)43% (Feb 24, 2:50 PM)29.21 "Hg (Feb 22, 8:50 PM)
Average42 °F84%29.86 "Hg
* Reported Feb 13 3:50 PM — Feb 28 3:50 PM, Swindon, Weather by CustomWeather, © 2015

Note: Actual official high and low records may vary slightly from our data, if they occured in-between our weather recording intervals... More about our weather records

Advertising

Swindon weather history for previous 24 hours

 ConditionsComfort  
Time TempWeatherWind HumidityBarometerVisibility
3:50 PM
Sat, Feb 28
52 °FPartly sunny.13 mph72%29.59 "HgN/A
2:50 PM52 °FBroken clouds.10 mph72%29.62 "HgN/A
1:50 PM52 °FPartly sunny.13 mph67%29.65 "HgN/A
12:50 PM52 °FPartly sunny.12 mph72%29.68 "HgN/A
11:50 AM50 °FPartly sunny.10 mph82%29.71 "HgN/A
10:50 AM48 °FDrizzle. Mostly cloudy.10 mph94%29.74 "Hg4 mi
9:50 AM46 °FDrizzle. Mostly cloudy.12 mph93%29.77 "Hg6 mi
8:50 AM46 °FMore clouds than sun.12 mph87%29.80 "HgN/A
7:50 AM45 °FLow clouds.13 mph93%29.80 "HgN/A
6:50 AM45 °FMostly cloudy.14 mph93%29.80 "HgN/A
5:50 AM45 °FPartly cloudy.15 mph87%29.80 "HgN/A
4:50 AM43 °FLow clouds.12 mph93%29.86 "HgN/A
3:50 AM43 °FLow clouds.12 mph93%29.89 "HgN/A
3:18 AM43 °FPassing clouds.12 mph93%29.89 "HgN/A
2:50 AM43 °FPassing clouds.12 mph93%29.89 "Hg4 mi
1:50 AM43 °FPassing clouds.13 mph87%29.92 "HgN/A
12:50 AM43 °FPassing clouds.9 mph81%29.98 "HgN/A
11:50 PM
Fri, Feb 27
41 °FPassing clouds.9 mph81%29.98 "HgN/A
10:50 PM41 °FPassing clouds.8 mph81%30.01 "HgN/A
9:50 PM41 °FClear.7 mph81%30.04 "Hg10 mi
8:50 PM41 °FClear.6 mph76%30.04 "Hg10 mi
7:50 PM41 °FClear.6 mph76%30.07 "Hg10 mi
6:50 PM41 °FClear.3 mph76%30.09 "Hg10 mi
5:50 PM43 °FClear.5 mph66%30.09 "Hg10 mi
4:50 PM45 °FScattered clouds.6 mph57%30.09 "HgN/A
Weather by CustomWeather, © 2015

See weather overviewHow to use our weather pages